Date String (YYYY-MM-DD hh:mm:ss) UTC,Instrument flags,Ambient pressure (hPa),Sample flow (lpm),Bypass flow (lpm),Sample temperature (°C),Ambient temperature (°C),ASC tube jacket temperature (°C),LED temperature (°C),Box temperature (°C),Sample RH (%),Span deviation,Mass concentration (μg/m³),Mass concentration (μg/m³),Mass concentration (μg/m³)
DateTimeUTC,F1_M11,P_M11,Q1_M11,Q2_M11,T1_M11,T2_M11,T3_M11,T4_M11,T5_M11,U1_M11,ZSPAN_M11,X0_M11,X2_M11,X1_M11
2022-12-16 21:00:00,,0823.8,4.98,0.00,21.8,21.0,00.0,30.6,23.5,04.1,0000.0,0002.03,0001.47,0001.24
2022-12-16 21:01:00,,0823.7,5.02,0.00,21.8,20.8,00.0,30.6,23.4,04.1,0000.0,0002.10,0001.50,0001.26
2022-12-16 21:02:00,,0823.7,4.97,0.00,21.7,20.5,00.0,30.6,23.3,04.1,0000.0,0002.09,0001.50,0001.27
2022-12-16 21:03:00,,0823.7,5.04,0.00,21.7,20.3,00.0,30.6,23.2,04.1,0000.0,0002.04,0001.48,0001.27
2022-12-16 21:04:00,,0823.7,4.96,0.00,21.6,20.1,00.0,30.6,23.1,04.1,0000.0,0002.08,0001.50,0001.28
2022-12-16 21:05:00,,0823.7,5.04,0.00,21.6,20.0,00.0,30.6,23.1,04.1,0000.0,0002.11,0001.50,0001.27
2022-12-16 21:06:00,,0823.7,4.96,0.00,21.5,19.9,00.0,30.5,23.0,04.1,0000.0,0002.13,0001.51,0001.27
2022-12-16 21:07:00,,0823.8,5.04,0.00,21.6,20.7,00.0,30.5,23.2,04.1,0000.0,0002.09,0001.49,0001.26
2022-12-16 21:08:00,,0823.8,4.96,0.00,21.7,21.7,00.0,30.5,23.5,04.1,0000.0,0002.09,0001.49,0001.26
2022-12-16 21:09:00,,0823.7,5.01,0.00,21.8,22.3,00.0,30.5,23.7,04.1,0000.0,0002.06,0001.48,0001.26
2022-12-16 21:10:00,,0823.7,5.02,0.00,21.8,21.7,00.0,30.6,23.6,04.0,0000.0,0002.08,0001.49,0001.27
2022-12-16 21:11:00,,0823.8,4.97,0.00,21.8,21.1,00.0,30.6,23.4,04.1,0000.0,0002.09,0001.49,0001.27
2022-12-16 21:12:00,,0823.7,5.03,0.00,21.7,20.7,00.0,30.6,23.3,04.2,0000.0,0002.07,0001.48,0001.27
2022-12-16 21:13:00,,0823.7,4.96,0.00,21.7,20.4,00.0,30.6,23.2,04.2,0000.0,0002.10,0001.47,0001.26
2022-12-16 21:14:00,,0823.8,5.04,0.00,21.6,20.2,00.0,30.6,23.1,04.2,0000.0,0002.03,0001.45,0001.26
2022-12-16 21:15:00,,0823.8,4.97,0.00,21.6,20.0,00.0,30.6,23.0,04.2,0000.0,0001.98,0001.43,0001.26
2022-12-16 21:16:00,,0823.9,5.03,0.00,21.5,19.9,00.0,30.5,23.0,04.1,0000.0,0001.93,0001.42,0001.25
2022-12-16 21:17:00,,0823.9,4.96,0.00,21.5,19.7,00.0,30.5,22.9,04.1,0000.0,0001.94,0001.42,0001.27
2022-12-16 21:18:00,,0823.9,5.05,0.00,21.5,20.3,00.0,30.4,23.1,04.1,0000.0,0002.01,0001.45,0001.28
2022-12-16 21:19:00,,0823.9,4.96,0.00,21.6,21.5,00.0,30.4,23.4,04.1,0000.0,0002.14,0001.43,0001.28
2022-12-16 21:20:00,,0823.9,5.03,0.00,21.7,21.8,00.0,30.4,23.5,04.1,0000.0,0002.15,0001.43,0001.29
2022-12-16 21:21:00,,0823.8,5.00,0.00,21.7,21.1,00.0,30.5,23.4,04.1,0000.0,0002.20,0001.45,0001.30
2022-12-16 21:22:00,,0823.8,4.98,0.00,21.6,20.6,00.0,30.5,23.2,04.1,0000.0,0002.99,0001.48,0001.30
2022-12-16 21:23:00,,0823.8,5.04,0.00,21.5,20.2,00.0,30.5,23.1,04.2,0000.0,0003.47,0001.52,0001.31
2022-12-16 21:24:00,,0823.8,4.97,0.00,21.5,19.9,00.0,30.5,22.9,04.2,0000.0,0003.41,0001.53,0001.31
2022-12-16 21:25:00,,0823.8,5.03,0.00,21.4,19.8,00.0,30.5,22.8,04.2,0000.0,0003.47,0001.56,0001.32
2022-12-16 21:26:00,,0823.8,4.96,0.00,21.3,19.6,00.0,30.4,22.7,04.3,0000.0,0003.51,0001.57,0001.32
2022-12-16 21:27:00,,0823.8,5.04,0.00,21.3,19.5,00.0,30.4,22.7,04.3,0000.0,0003.48,0001.56,0001.34
2022-12-16 21:28:00,,0823.8,4.97,0.00,21.3,20.0,00.0,30.3,22.8,04.3,0000.0,0003.42,0001.54,0001.33
2022-12-16 21:29:00,,0823.7,4.99,0.00,21.4,21.2,00.0,30.3,23.1,04.3,0000.0,0003.39,0001.53,0001.32
2022-12-16 21:30:00,,0823.8,5.01,0.00,21.5,22.1,00.0,30.3,23.4,04.2,0000.0,0003.27,0001.54,0001.33
2022-12-16 21:31:00,,0823.7,5.00,0.00,21.6,21.9,00.0,30.3,23.5,04.2,0000.0,0003.30,0001.55,0001.32
2022-12-16 21:32:00,,0823.7,4.99,0.00,21.6,21.2,00.0,30.4,23.3,04.2,0000.0,0003.27,0001.54,0001.31
2022-12-16 21:33:00,,0823.7,5.05,0.00,21.5,20.6,00.0,30.4,23.1,04.2,0000.0,0002.86,0001.51,0001.30
2022-12-16 21:34:00,,0823.8,4.97,0.00,21.5,20.2,00.0,30.4,23.0,04.2,0000.0,0002.06,0001.47,0001.30
2022-12-16 21:35:00,,0823.8,5.01,0.00,21.4,19.9,00.0,30.4,22.9,04.2,0000.0,0002.06,0001.47,0001.29
2022-12-16 21:36:00,,0823.8,4.98,0.00,21.4,19.7,00.0,30.4,22.8,04.3,0000.0,0002.19,0001.46,0001.28
2022-12-16 21:37:00,,0823.8,5.01,0.00,21.3,19.7,00.0,30.3,22.8,04.2,0000.0,0002.26,0001.47,0001.28
2022-12-16 21:38:00,,0823.8,5.01,0.00,21.3,19.6,00.0,30.3,22.7,04.3,0000.0,0002.24,0001.45,0001.27
2022-12-16 21:39:00,,0823.7,5.00,0.00,21.3,19.9,00.0,30.3,22.8,04.2,0000.0,0002.32,0001.48,0001.27
2022-12-16 21:40:00,,0823.9,5.02,0.00,21.4,21.0,00.0,30.2,23.1,04.2,0000.0,0002.43,0001.52,0001.28
2022-12-16 21:41:00,,0823.9,4.97,0.00,21.5,21.9,00.0,30.2,23.4,04.2,0000.0,0002.45,0001.51,0001.28
2022-12-16 21:42:00,,0823.8,5.04,0.00,21.5,21.3,00.0,30.3,23.3,04.2,0000.0,0002.34,0001.50,0001.29
2022-12-16 21:43:00,,0823.8,4.95,0.00,21.5,20.7,00.0,30.3,23.1,04.2,0000.0,0002.37,0001.51,0001.29
2022-12-16 21:44:00,,0823.8,5.04,0.00,21.4,20.2,00.0,30.3,23.0,04.2,0000.0,0002.37,0001.52,0001.30
2022-12-16 21:45:00,,0823.8,4.97,0.00,21.4,19.9,00.0,30.3,22.9,04.3,0000.0,0002.44,0001.55,0001.32
2022-12-16 21:46:00,,0823.8,5.00,0.00,21.3,19.8,00.0,30.3,22.8,04.3,0000.0,0002.43,0001.55,0001.32
2022-12-16 21:47:00,,0823.7,4.99,0.00,21.3,19.7,00.0,30.3,22.7,04.3,0000.0,0002.31,0001.56,0001.33
2022-12-16 21:48:00,,0823.8,5.02,0.00,21.2,19.6,00.0,30.2,22.7,04.3,0000.0,0002.26,0001.56,0001.33
2022-12-16 21:49:00,,0823.8,5.00,0.00,21.2,20.3,00.0,30.2,22.9,04.3,0000.0,0002.87,0001.58,0001.34
2022-12-16 21:50:00,,0823.8,4.97,0.00,21.4,21.4,00.0,30.2,23.2,04.2,0000.0,0003.74,0001.60,0001.35
2022-12-16 21:51:00,,0823.9,5.03,0.00,21.5,21.7,00.0,30.2,23.3,04.2,0000.0,0003.76,0001.59,0001.36
2022-12-16 21:52:00,,0823.8,4.95,0.00,21.5,21.1,00.0,30.3,23.3,04.2,0000.0,0003.67,0001.56,0001.37
2022-12-16 21:53:00,,0823.8,5.04,0.00,21.4,20.6,00.0,30.3,23.1,04.2,0000.0,0003.64,0001.56,0001.38
2022-12-16 21:54:00,,0823.9,4.98,0.00,21.4,20.2,00.0,30.3,23.0,04.2,0000.0,0003.64,0001.56,0001.38
2022-12-16 21:55:00,,0823.9,4.99,0.00,21.3,20.0,00.0,30.3,22.9,04.2,0000.0,0003.73,0001.58,0001.38
2022-12-16 21:56:00,,0823.8,5.03,0.00,21.3,19.8,00.0,30.3,22.8,04.2,0000.0,0003.71,0001.56,0001.37
2022-12-16 21:57:00,,0823.8,4.96,0.00,21.3,19.7,00.0,30.2,22.7,04.2,0000.0,0003.71,0001.56,0001.38
2022-12-16 21:58:00,,0824.0,5.04,0.00,21.2,19.8,00.0,30.2,22.8,04.2,0000.0,0003.65,0001.53,0001.37
2022-12-16 21:59:00,,0823.9,4.99,0.00,21.3,20.8,00.0,30.2,23.0,04.2,0000.0,0003.64,0001.54,0001.37
